Time,TemperatureF,DewpointF,PressureIn,WindDirection,WindDirectionDegrees,WindSpeedMPH,WindSpeedGustMPH,Humidity,HourlyPrecipIn,Conditions,Clouds,dailyrainin,SoftwareType,DateUTC
2013-04-27 00:04:00,57.6,50.4,30.15,NNW,348,0.0,0.0,77,0.00,CLR,,0.00,WeatherDisplay:10.37,2013-04-26 14:04:00,
2013-04-27 00:09:00,57.7,50.6,30.15,South,185,0.0,0.0,77,0.00,CLR,,0.00,WeatherDisplay:10.37,2013-04-26 14:09:00,
2013-04-27 00:14:00,57.6,50.4,30.15,South,190,0.0,0.0,77,0.00,CLR,,0.00,WeatherDisplay:10.37,2013-04-26 14:14:00,
2013-04-27 00:19:00,57.4,50.3,30.15,SSW,203,0.0,0.0,77,0.00,CLR,,0.00,WeatherDisplay:10.37,2013-04-26 14:19:00,
2013-04-27 00:24:00,57.4,49.9,30.15,SSE,164,0.0,0.0,76,0.00,CLR,,0.00,WeatherDisplay:10.37,2013-04-26 14:24:00,
2013-04-27 00:29:00,57.2,50.1,30.15,SSE,158,0.0,0.0,77,0.00,CLR,,0.00,WeatherDisplay:10.37,2013-04-26 14:29:00,
2013-04-27 00:34:00,57.3,49.8,30.15,SSE,158,0.0,0.0,76,0.00,CLR,,0.00,WeatherDisplay:10.37,2013-04-26 14:34:00,
2013-04-27 00:39:00,57.0,49.9,30.15,SSE,158,0.0,0.0,77,0.00,CLR,,0.00,WeatherDisplay:10.37,2013-04-26 14:39:00,
2013-04-27 00:44:00,57.0,49.5,30.15,SSE,159,0.0,0.0,76,0.00,CLR,,0.00,WeatherDisplay:10.37,2013-04-26 14:44:00,
2013-04-27 00:49:00,56.8,49.4,30.14,SSE,159,0.0,0.0,76,0.00,CLR,,0.00,WeatherDisplay:10.37,2013-04-26 14:49:00,
2013-04-27 00:54:00,56.8,49.6,30.14,SSE,158,0.0,0.0,77,0.00,CLR,,0.00,WeatherDisplay:10.37,2013-04-26 14:54:00,
2013-04-27 00:59:00,56.5,49.4,30.15,SSW,204,0.0,0.0,77,0.00,CLR,,0.00,WeatherDisplay:10.37,2013-04-26 14:59:00,
2013-04-27 01:04:00,56.5,49.4,30.14,West,263,0.0,0.0,77,0.00,CLR,,0.00,WeatherDisplay:10.37,2013-04-26 15:04:00,
2013-04-27 01:09:00,56.3,49.2,30.14,WSW,244,0.0,0.0,77,0.00,CLR,,0.00,WeatherDisplay:10.37,2013-04-26 15:09:00,
2013-04-27 01:14:00,56.3,49.2,30.14,SSW,208,0.0,0.0,77,0.00,CLR,,0.00,WeatherDisplay:10.37,2013-04-26 15:14:00,
2013-04-27 01:19:00,56.3,49.2,30.14,SSW,202,0.0,0.0,77,0.00,CLR,,0.00,WeatherDisplay:10.37,2013-04-26 15:19:00,
2013-04-27 01:24:00,56.1,49.0,30.14,SSW,202,0.0,0.0,77,0.00,CLR,,0.00,WeatherDisplay:10.37,2013-04-26 15:24:00,
2013-04-27 01:29:00,55.9,48.8,30.14,SSW,195,0.0,0.0,77,0.00,CLR,,0.00,WeatherDisplay:10.37,2013-04-26 15:29:00,
2013-04-27 01:34:00,55.9,48.8,30.14,South,184,0.0,0.0,77,0.00,CLR,,0.00,WeatherDisplay:10.37,2013-04-26 15:34:00,
2013-04-27 01:39:00,55.8,48.7,30.14,South,180,0.0,0.0,77,0.00,CLR,,0.00,WeatherDisplay:10.37,2013-04-26 15:39:00,
2013-04-27 01:44:00,55.8,48.7,30.14,SSE,155,0.0,1.0,77,0.00,CLR,,0.00,WeatherDisplay:10.37,2013-04-26 15:44:00,
2013-04-27 01:49:00,55.8,48.7,30.14,NE,38,0.0,0.0,77,0.00,CLR,,0.00,WeatherDisplay:10.37,2013-04-26 15:49:00,
2013-04-27 01:54:00,55.6,48.5,30.14,NNE,14,0.0,1.0,77,0.00,CLR,,0.00,WeatherDisplay:10.37,2013-04-26 15:54:00,
2013-04-27 01:59:00,55.6,48.5,30.14,North,350,0.0,0.0,77,0.00,CLR,,0.00,WeatherDisplay:10.37,2013-04-26 15:59:00,
2013-04-27 02:04:00,55.6,48.5,30.14,NNW,346,0.0,0.0,77,0.00,CLR,,0.00,WeatherDisplay:10.37,2013-04-26 16:04:00,
2013-04-27 02:09:00,55.4,48.3,30.14,North,352,0.0,0.0,77,0.00,CLR,,0.00,WeatherDisplay:10.37,2013-04-26 16:09:00,
2013-04-27 02:14:00,55.2,48.1,30.14,NNW,332,0.0,0.0,77,0.00,CLR,,0.00,WeatherDisplay:10.37,2013-04-26 16:14:00,
2013-04-27 02:19:00,55.2,48.1,30.14,WSW,258,0.0,0.0,77,0.00,CLR,,0.00,WeatherDisplay:10.37,2013-04-26 16:19:00,
2013-04-27 02:24:00,55.2,48.1,30.14,SW,226,0.0,1.0,77,0.00,CLR,,0.00,WeatherDisplay:10.37,2013-04-26 16:24:00,
2013-04-27 02:29:00,55.0,48.0,30.13,SW,226,0.0,0.0,77,0.00,CLR,,0.00,WeatherDisplay:10.37,2013-04-26 16:29:00,
2013-04-27 02:34:00,55.0,48.0,30.13,WSW,246,0.0,0.0,77,0.00,CLR,,0.00,WeatherDisplay:10.37,2013-04-26 16:34:00,
2013-04-27 02:39:00,55.0,48.0,30.13,ENE,75,0.0,0.0,77,0.00,CLR,,0.00,WeatherDisplay:10.37,2013-04-26 16:39:00,
2013-04-27 02:44:00,55.0,48.0,30.13,East,79,1.0,1.0,77,0.00,CLR,,0.00,WeatherDisplay:10.37,2013-04-26 16:44:00,
2013-04-27 02:49:00,55.0,48.0,30.13,NNE,14,0.0,0.0,77,0.00,CLR,,0.00,WeatherDisplay:10.37,2013-04-26 16:49:00,
2013-04-27 02:54:00,54.9,47.8,30.13,North,357,0.0,1.0,77,0.00,CLR,,0.00,WeatherDisplay:10.37,2013-04-26 16:54:00,
2013-04-27 02:59:00,54.9,47.8,30.13,North,4,0.0,1.0,77,0.00,CLR,,0.00,WeatherDisplay:10.37,2013-04-26 16:59:00,
2013-04-27 03:04:00,54.7,48.0,30.13,ENE,64,0.0,0.0,78,0.00,CLR,,0.00,WeatherDisplay:10.37,2013-04-26 17:04:00,
2013-04-27 03:09:00,54.3,47.6,30.13,East,99,0.0,0.0,78,0.00,CLR,,0.00,WeatherDisplay:10.37,2013-04-26 17:09:00,
2013-04-27 03:14:00,54.3,47.6,30.13,SE,134,0.0,1.0,78,0.00,CLR,,0.00,WeatherDisplay:10.37,2013-04-26 17:14:00,
2013-04-27 03:19:00,54.3,47.6,30.13,South,179,0.0,0.0,78,0.00,CLR,,0.00,WeatherDisplay:10.37,2013-04-26 17:19:00,
2013-04-27 03:24:00,54.3,47.6,30.13,South,190,0.0,0.0,78,0.00,CLR,,0.00,WeatherDisplay:10.37,2013-04-26 17:24:00,
2013-04-27 03:29:00,54.2,47.5,30.13,SSW,195,0.0,0.0,78,0.00,CLR,,0.00,WeatherDisplay:10.37,2013-04-26 17:29:00,
2013-04-27 03:39:00,53.8,47.1,30.13,SSW,192,0.0,0.0,78,0.00,CLR,,0.00,WeatherDisplay:10.37,2013-04-26 17:39:00,
2013-04-27 03:44:00,54.0,47.6,30.13,SSW,202,0.0,0.0,79,0.00,CLR,,0.00,WeatherDisplay:10.37,2013-04-26 17:44:00,
2013-04-27 03:49:00,53.9,47.2,30.13,SSW,202,0.0,0.0,78,0.00,CLR,,0.00,WeatherDisplay:10.37,2013-04-26 17:49:00,
2013-04-27 03:54:00,53.8,47.1,30.13,SSW,202,0.0,0.0,78,0.00,CLR,,0.00,WeatherDisplay:10.37,2013-04-26 17:54:00,
2013-04-27 03:59:00,53.8,47.4,30.13,SSW,208,0.0,0.0,79,0.00,CLR,,0.00,WeatherDisplay:10.37,2013-04-26 17:59:00,
2013-04-27 04:04:00,53.8,47.4,30.13,SW,220,0.0,0.0,79,0.00,CLR,,0.00,WeatherDisplay:10.37,2013-04-26 18:04:00,
2013-04-27 04:09:00,53.8,47.4,30.13,SSW,208,0.0,0.0,79,0.00,CLR,,0.00,WeatherDisplay:10.37,2013-04-26 18:09:00,
2013-04-27 04:14:00,53.8,47.1,30.13,SSE,162,0.0,1.0,78,0.00,CLR,,0.00,WeatherDisplay:10.37,2013-04-26 18:14:00,
2013-04-27 04:19:00,53.8,47.1,30.13,NNE,13,0.0,1.0,78,0.00,CLR,,0.00,WeatherDisplay:10.37,2013-04-26 18:19:00,
2013-04-27 04:24:00,53.6,46.9,30.14,WNW,293,0.0,0.0,78,0.00,CLR,,0.00,WeatherDisplay:10.37,2013-04-26 18:24:00,
2013-04-27 04:29:00,53.4,47.1,30.13,SW,218,0.0,0.0,79,0.00,CLR,,0.00,WeatherDisplay:10.37,2013-04-26 18:29:00,
2013-04-27 04:34:00,53.4,46.7,30.14,SSW,206,0.0,0.0,78,0.00,CLR,,0.00,WeatherDisplay:10.37,2013-04-26 18:34:00,
2013-04-27 04:39:00,53.4,46.7,30.14,SSW,201,0.0,0.0,78,0.00,CLR,,0.00,WeatherDisplay:10.37,2013-04-26 18:39:00,
2013-04-27 04:44:00,53.4,46.7,30.13,SE,144,0.0,0.0,78,0.00,CLR,,0.00,WeatherDisplay:10.37,2013-04-26 18:44:00,
2013-04-27 04:49:00,53.2,46.9,30.13,ENE,76,0.0,1.0,79,0.00,CLR,,0.00,WeatherDisplay:10.37,2013-04-26 18:49:00,
2013-04-27 04:54:00,53.2,46.9,30.13,North,1,0.0,0.0,79,0.00,CLR,,0.00,WeatherDisplay:10.37,2013-04-26 18:54:00,
2013-04-27 04:59:00,53.2,46.9,30.14,West,280,0.0,0.0,79,0.00,CLR,,0.00,WeatherDisplay:10.37,2013-04-26 18:59:00,
2013-04-27 05:04:00,53.2,46.8,30.14,SW,226,0.0,0.0,79,0.00,CLR,,0.00,WeatherDisplay:10.37,2013-04-26 19:04:00,
2013-04-27 05:09:00,53.1,46.7,30.14,West,261,0.0,0.0,79,0.00,CLR,,0.00,WeatherDisplay:10.37,2013-04-26 19:09:00,
2013-04-27 05:14:00,52.9,46.5,30.13,East,89,0.0,0.0,79,0.00,CLR,,0.00,WeatherDisplay:10.37,2013-04-26 19:14:00,
2013-04-27 05:19:00,52.9,46.5,30.13,South,176,0.0,0.0,79,0.00,CLR,,0.00,WeatherDisplay:10.37,2013-04-26 19:19:00,
2013-04-27 05:24:00,52.9,46.5,30.14,South,180,0.0,0.0,79,0.00,CLR,,0.00,WeatherDisplay:10.37,2013-04-26 19:24:00,
2013-04-27 05:29:00,52.7,46.4,30.14,South,171,0.0,0.0,79,0.00,CLR,,0.00,WeatherDisplay:10.37,2013-04-26 19:29:00,
2013-04-27 05:34:00,52.7,46.4,30.14,SSE,152,0.0,0.0,79,0.00,CLR,,0.00,WeatherDisplay:10.37,2013-04-26 19:34:00,
2013-04-27 05:39:00,52.7,46.4,30.14,ESE,120,0.0,0.0,79,0.00,CLR,,0.00,WeatherDisplay:10.37,2013-04-26 19:39:00,
2013-04-27 05:44:00,52.7,46.4,30.14,ESE,109,0.0,0.0,79,0.00,CLR,,0.00,WeatherDisplay:10.37,2013-04-26 19:44:00,
2013-04-27 05:49:00,52.6,46.3,30.14,ESE,111,0.0,0.0,79,0.00,CLR,,0.00,WeatherDisplay:10.37,2013-04-26 19:49:00,
2013-04-27 05:54:00,52.3,46.0,30.14,ESE,113,0.0,0.0,79,0.00,CLR,,0.00,WeatherDisplay:10.37,2013-04-26 19:54:00,
2013-04-27 05:59:00,52.3,46.0,30.14,East,101,0.0,0.0,79,0.00,CLR,,0.00,WeatherDisplay:10.37,2013-04-26 19:59:00,
2013-04-27 06:04:00,52.3,46.0,30.14,SE,128,0.0,0.0,79,0.00,CLR,,0.00,WeatherDisplay:10.37,2013-04-26 20:04:00,
2013-04-27 06:09:00,52.3,46.0,30.14,SSE,158,0.0,0.0,79,0.00,CLR,,0.00,WeatherDisplay:10.37,2013-04-26 20:09:00,
2013-04-27 06:14:00,52.2,45.8,30.14,SSE,158,0.0,0.0,79,0.00,CLR,,0.00,WeatherDisplay:10.37,2013-04-26 20:14:00,
2013-04-27 06:19:00,52.2,45.8,30.14,SSE,158,0.0,0.0,79,0.00,CLR,,0.00,WeatherDisplay:10.37,2013-04-26 20:19:00,
2013-04-27 06:24:00,52.0,45.7,30.14,SSE,158,0.0,0.0,79,0.00,CLR,,0.00,WeatherDisplay:10.37,2013-04-26 20:24:00,
2013-04-27 06:29:00,52.0,45.7,30.14,SSE,158,0.0,0.0,79,0.00,CLR,,0.00,WeatherDisplay:10.37,2013-04-26 20:29:00,
2013-04-27 06:34:00,52.0,45.7,30.14,SSE,158,0.0,0.0,79,0.00,CLR,,0.00,WeatherDisplay:10.37,2013-04-26 20:34:00,
2013-04-27 06:39:00,52.0,46.0,30.15,SSE,158,0.0,0.0,80,0.00,CLR,,0.00,WeatherDisplay:10.37,2013-04-26 20:39:00,
2013-04-27 06:44:00,52.0,45.7,30.15,SSE,164,0.0,0.0,79,0.00,CLR,,0.00,WeatherDisplay:10.37,2013-04-26 20:44:00,
2013-04-27 06:49:00,52.2,46.2,30.15,SW,217,0.0,0.0,80,0.00,CLR,,0.00,WeatherDisplay:10.37,2013-04-26 20:49:00,
2013-04-27 06:54:00,52.2,46.2,30.15,WSW,245,0.0,0.0,80,0.00,CLR,,0.00,WeatherDisplay:10.37,2013-04-26 20:54:00,
2013-04-27 06:59:00,52.0,46.0,30.15,SW,222,0.0,0.0,80,0.00,CLR,,0.00,WeatherDisplay:10.37,2013-04-26 20:59:00,
2013-04-27 07:04:00,52.0,46.0,30.15,SSW,203,0.0,0.0,80,0.00,CLR,,0.00,WeatherDisplay:10.37,2013-04-26 21:04:00,
2013-04-27 07:09:00,52.0,46.1,30.15,SSW,202,0.0,0.0,80,0.00,CLR,,0.00,WeatherDisplay:10.37,2013-04-26 21:09:00,
2013-04-27 07:14:00,52.2,46.5,30.15,SSW,202,0.0,0.0,81,0.00,CLR,,0.00,WeatherDisplay:10.37,2013-04-26 21:14:00,
2013-04-27 07:19:00,52.3,46.7,30.15,South,190,0.0,0.0,81,0.00,CLR,,0.00,WeatherDisplay:10.37,2013-04-26 21:19:00,
2013-04-27 07:24:00,52.5,46.9,30.15,SSE,161,0.0,0.0,81,0.00,CLR,,0.00,WeatherDisplay:10.37,2013-04-26 21:24:00,
2013-04-27 07:29:00,52.6,47.0,30.16,SSE,152,0.0,0.0,81,0.00,CLR,,0.00,WeatherDisplay:10.37,2013-04-26 21:29:00,
2013-04-27 07:34:00,52.8,47.5,30.16,SSE,151,0.0,1.0,82,0.00,CLR,,0.00,WeatherDisplay:10.37,2013-04-26 21:34:00,
2013-04-27 07:39:00,52.9,47.5,30.16,SE,141,0.0,1.0,82,0.00,CLR,,0.00,WeatherDisplay:10.37,2013-04-26 21:39:00,
2013-04-27 07:44:00,53.2,47.9,30.16,SSE,155,0.0,1.0,82,0.00,CLR,,0.00,WeatherDisplay:10.37,2013-04-26 21:44:00,
2013-04-27 07:49:00,53.4,48.1,30.16,SSE,153,0.0,1.0,82,0.00,CLR,,0.00,WeatherDisplay:10.37,2013-04-26 21:49:00,
2013-04-27 07:54:00,53.7,48.3,30.16,SSE,156,0.0,1.0,82,0.00,CLR,,0.00,WeatherDisplay:10.37,2013-04-26 21:54:00,
2013-04-27 07:59:00,53.8,48.4,30.16,South,172,0.0,1.0,82,0.00,CLR,,0.00,WeatherDisplay:10.37,2013-04-26 21:59:00,
2013-04-27 08:04:00,54.1,48.8,30.17,South,171,0.0,0.0,82,0.00,CLR,,0.00,WeatherDisplay:10.37,2013-04-26 22:04:00,
2013-04-27 08:09:00,54.3,48.9,30.17,SSE,163,0.0,0.0,82,0.00,CLR,,0.00,WeatherDisplay:10.37,2013-04-26 22:09:00,
2013-04-27 08:14:00,54.7,49.3,30.17,SSE,160,0.0,0.0,82,0.00,CLR,,0.00,WeatherDisplay:10.37,2013-04-26 22:14:00,
2013-04-27 08:19:00,55.0,50.0,30.17,SSE,165,0.0,1.0,83,0.00,CLR,,0.00,WeatherDisplay:10.37,2013-04-26 22:19:00,
2013-04-27 08:24:00,55.2,50.1,30.17,South,174,0.0,1.0,83,0.00,CLR,,0.00,WeatherDisplay:10.37,2013-04-26 22:24:00,
2013-04-27 08:29:00,55.6,50.5,30.17,South,178,1.0,1.0,83,0.00,CLR,,0.00,WeatherDisplay:10.37,2013-04-26 22:29:00,
2013-04-27 08:34:00,55.9,50.9,30.17,South,172,0.0,1.0,83,0.00,CLR,,0.00,WeatherDisplay:10.37,2013-04-26 22:34:00,
2013-04-27 08:39:00,56.5,51.1,30.17,SSE,150,0.0,1.0,82,0.00,CLR,,0.00,WeatherDisplay:10.37,2013-04-26 22:39:00,
2013-04-27 08:44:00,57.0,51.9,30.17,SSE,152,0.0,1.0,83,0.00,CLR,,0.00,WeatherDisplay:10.37,2013-04-26 22:44:00,
2013-04-27 08:49:00,57.6,52.4,30.17,South,172,1.0,2.0,83,0.00,CLR,,0.00,WeatherDisplay:10.37,2013-04-26 22:49:00,
2013-04-27 08:54:00,58.1,53.0,30.17,South,169,0.0,1.0,83,0.00,CLR,,0.00,WeatherDisplay:10.37,2013-04-26 22:54:00,
2013-04-27 08:59:00,58.8,53.6,30.17,SSW,202,0.0,0.0,83,0.00,CLR,,0.00,WeatherDisplay:10.37,2013-04-26 22:59:00,
2013-04-27 09:04:00,59.8,53.2,30.16,NW,311,1.0,3.0,79,0.00,CLR,,0.00,WeatherDisplay:10.37,2013-04-26 23:04:00,
2013-04-27 09:09:00,60.6,53.0,30.16,NNW,328,2.0,6.0,76,0.00,CLR,,0.00,WeatherDisplay:10.37,2013-04-26 23:09:00,
2013-04-27 09:14:00,61.5,52.8,30.16,NNW,343,3.0,5.0,73,0.00,CLR,,0.00,WeatherDisplay:10.37,2013-04-26 23:14:00,
2013-04-27 09:19:00,62.8,52.8,30.16,NNW,335,0.0,3.0,70,0.00,CLR,,0.00,WeatherDisplay:10.37,2013-04-26 23:19:00,
2013-04-27 09:24:00,63.2,52.8,30.16,NNW,342,2.0,5.0,69,0.00,CLR,,0.00,WeatherDisplay:10.37,2013-04-26 23:24:00,
2013-04-27 09:29:00,63.3,53.0,30.16,NNW,341,1.0,5.0,69,0.00,CLR,,0.00,WeatherDisplay:10.37,2013-04-26 23:29:00,
2013-04-27 09:34:00,63.6,52.8,30.16,NNW,341,2.0,6.0,68,0.00,CLR,,0.00,WeatherDisplay:10.37,2013-04-26 23:34:00,
2013-04-27 09:39:00,64.2,52.6,30.16,North,353,3.0,6.0,66,0.00,CLR,,0.00,WeatherDisplay:10.37,2013-04-26 23:39:00,
2013-04-27 09:44:00,64.9,52.9,30.16,North,5,3.0,6.0,65,0.00,CLR,,0.00,WeatherDisplay:10.37,2013-04-26 23:44:00,
2013-04-27 09:49:00,65.1,52.6,30.16,North,357,1.0,6.0,64,0.00,CLR,,0.00,WeatherDisplay:10.37,2013-04-26 23:49:00,
2013-04-27 09:54:00,65.3,52.8,30.16,NNW,343,2.0,4.0,64,0.00,CLR,,0.00,WeatherDisplay:10.37,2013-04-26 23:54:00,
2013-04-27 10:09:00,65.6,52.7,30.15,NNW,343,5.0,7.0,63,0.00,CLR,,0.00,WeatherDisplay:10.37,2013-04-27 00:09:00,
2013-04-27 10:14:00,65.9,52.5,30.15,NNW,334,2.0,6.0,62,0.00,CLR,,0.00,WeatherDisplay:10.37,2013-04-27 00:14:00,
2013-04-27 10:19:00,66.0,52.2,30.15,NW,320,3.0,5.0,61,0.00,CLR,,0.00,WeatherDisplay:10.37,2013-04-27 00:19:00,
2013-04-27 10:24:00,66.0,52.2,30.15,NW,307,1.0,6.0,61,0.00,CLR,,0.00,WeatherDisplay:10.37,2013-04-27 00:24:00,
2013-04-27 10:29:00,66.0,52.2,30.14,NW,317,2.0,5.0,61,0.00,CLR,,0.00,WeatherDisplay:10.37,2013-04-27 00:29:00,
2013-04-27 10:34:00,66.0,52.1,30.14,NNW,327,2.0,6.0,61,0.00,CLR,,0.00,WeatherDisplay:10.37,2013-04-27 00:34:00,
2013-04-27 10:39:00,66.0,52.2,30.14,NNW,330,1.0,5.0,61,0.00,CLR,,0.00,WeatherDisplay:10.37,2013-04-27 00:39:00,
2013-04-27 10:44:00,66.0,52.2,30.14,NNW,328,1.0,4.0,61,0.00,CLR,,0.00,WeatherDisplay:10.37,2013-04-27 00:44:00,
2013-04-27 10:49:00,66.4,52.5,30.14,NNW,346,1.0,6.0,61,0.00,CLR,,0.00,WeatherDisplay:10.37,2013-04-27 00:49:00,
2013-04-27 10:54:00,66.4,52.5,30.14,NNW,338,2.0,5.0,61,0.00,CLR,,0.00,WeatherDisplay:10.37,2013-04-27 00:54:00,
2013-04-27 10:59:00,66.9,53.0,30.14,NNW,343,1.0,4.0,61,0.00,CLR,,0.00,WeatherDisplay:10.37,2013-04-27 00:59:00,
2013-04-27 11:04:00,66.9,52.6,30.13,North,4,1.0,4.0,60,0.00,CLR,,0.00,WeatherDisplay:10.37,2013-04-27 01:04:00,
2013-04-27 11:09:00,67.3,52.9,30.13,North,10,1.0,5.0,60,0.00,CLR,,0.00,WeatherDisplay:10.37,2013-04-27 01:09:00,
2013-04-27 11:14:00,67.1,53.2,30.13,NNW,341,1.0,6.0,61,0.00,CLR,,0.00,WeatherDisplay:10.37,2013-04-27 01:14:00,
2013-04-27 11:19:00,67.3,52.9,30.13,NNW,346,0.0,5.0,60,0.00,CLR,,0.00,WeatherDisplay:10.37,2013-04-27 01:19:00,
2013-04-27 11:24:00,67.3,53.4,30.13,NW,325,0.0,3.0,61,0.00,CLR,,0.00,WeatherDisplay:10.37,2013-04-27 01:24:00,
2013-04-27 11:29:00,67.3,53.4,30.12,West,277,1.0,3.0,61,0.00,CLR,,0.00,WeatherDisplay:10.37,2013-04-27 01:29:00,
2013-04-27 11:34:00,67.6,53.6,30.12,NW,316,1.0,5.0,61,0.00,CLR,,0.00,WeatherDisplay:10.37,2013-04-27 01:34:00,
2013-04-27 11:39:00,68.0,53.6,30.11,North,2,0.0,5.0,60,0.00,CLR,,0.00,WeatherDisplay:10.37,2013-04-27 01:39:00,
2013-04-27 11:44:00,68.3,53.9,30.11,NNE,30,2.0,6.0,60,0.00,CLR,,0.00,WeatherDisplay:10.37,2013-04-27 01:44:00,
2013-04-27 11:49:00,68.2,54.2,30.11,NNE,28,3.0,7.0,61,0.00,CLR,,0.00,WeatherDisplay:10.37,2013-04-27 01:49:00,
2013-04-27 11:54:00,68.9,54.9,30.11,North,8,1.0,5.0,61,0.00,CLR,,0.00,WeatherDisplay:10.37,2013-04-27 01:54:00,
2013-04-27 11:59:00,68.9,54.9,30.11,NNW,341,2.0,3.0,61,0.00,CLR,,0.00,WeatherDisplay:10.37,2013-04-27 01:59:00,
2013-04-27 12:04:00,68.7,54.7,30.10,NW,316,1.0,3.0,61,0.00,CLR,,0.00,WeatherDisplay:10.37,2013-04-27 02:04:00,
2013-04-27 12:09:00,69.2,54.7,30.10,North,351,3.0,7.0,60,0.00,CLR,,0.00,WeatherDisplay:10.37,2013-04-27 02:09:00,
2013-04-27 12:14:00,69.8,54.4,30.09,NNE,33,2.0,6.0,58,0.00,CLR,,0.00,WeatherDisplay:10.37,2013-04-27 02:14:00,
2013-04-27 12:19:00,70.0,54.0,30.09,NE,42,1.0,6.0,57,0.00,CLR,,0.00,WeatherDisplay:10.37,2013-04-27 02:19:00,
2013-04-27 12:24:00,70.2,54.2,30.09,NNE,15,1.0,7.0,57,0.00,CLR,,0.00,WeatherDisplay:10.37,2013-04-27 02:24:00,
2013-04-27 12:29:00,70.3,54.4,30.09,NNW,346,2.0,6.0,57,0.00,CLR,,0.00,WeatherDisplay:10.37,2013-04-27 02:29:00,
2013-04-27 12:34:00,70.3,54.4,30.09,North,3,3.0,5.0,57,0.00,CLR,,0.00,WeatherDisplay:10.37,2013-04-27 02:34:00,
2013-04-27 12:39:00,70.3,54.4,30.08,NE,36,0.0,3.0,57,0.00,CLR,,0.00,WeatherDisplay:10.37,2013-04-27 02:39:00,
2013-04-27 12:44:00,70.3,54.4,30.08,NNE,20,2.0,5.0,57,0.00,CLR,,0.00,WeatherDisplay:10.37,2013-04-27 02:44:00,
2013-04-27 12:49:00,70.7,54.2,30.08,North,360,2.0,5.0,56,0.00,CLR,,0.00,WeatherDisplay:10.37,2013-04-27 02:49:00,
2013-04-27 12:54:00,71.2,54.7,30.08,North,357,2.0,4.0,56,0.00,CLR,,0.00,WeatherDisplay:10.37,2013-04-27 02:54:00,
2013-04-27 12:59:00,70.9,54.4,30.07,NNW,342,2.0,5.0,56,0.00,CLR,,0.00,WeatherDisplay:10.37,2013-04-27 02:59:00,
2013-04-27 13:04:00,70.9,54.4,30.07,North,3,0.0,3.0,56,0.00,CLR,,0.00,WeatherDisplay:10.37,2013-04-27 03:04:00,
2013-04-27 13:09:00,70.9,53.9,30.07,NE,34,1.0,6.0,55,0.00,CLR,,0.00,WeatherDisplay:10.37,2013-04-27 03:09:00,
2013-04-27 13:14:00,71.2,54.2,30.07,NNE,14,1.0,6.0,55,0.00,CLR,,0.00,WeatherDisplay:10.37,2013-04-27 03:14:00,
2013-04-27 13:19:00,71.4,54.4,30.07,NNE,23,1.0,6.0,55,0.00,CLR,,0.00,WeatherDisplay:10.37,2013-04-27 03:19:00,
2013-04-27 13:24:00,71.4,53.9,30.06,NNE,18,1.0,3.0,54,0.00,CLR,,0.00,WeatherDisplay:10.37,2013-04-27 03:24:00,
2013-04-27 13:29:00,71.8,54.2,30.06,NE,39,2.0,6.0,54,0.00,CLR,,0.00,WeatherDisplay:10.37,2013-04-27 03:29:00,
2013-04-27 13:34:00,71.8,54.2,30.06,ENE,58,1.0,5.0,54,0.00,CLR,,0.00,WeatherDisplay:10.37,2013-04-27 03:34:00,
2013-04-27 13:39:00,71.8,53.7,30.06,NNE,32,1.0,7.0,53,0.00,CLR,,0.00,WeatherDisplay:10.37,2013-04-27 03:39:00,
2013-04-27 13:44:00,72.0,53.9,30.06,NNE,33,1.0,4.0,53,0.00,CLR,,0.00,WeatherDisplay:10.37,2013-04-27 03:44:00,
2013-04-27 13:49:00,72.1,54.0,30.06,NNE,32,1.0,5.0,53,0.00,CLR,,0.00,WeatherDisplay:10.37,2013-04-27 03:49:00,
2013-04-27 13:54:00,72.0,53.9,30.06,NNE,21,2.0,3.0,53,0.00,CLR,,0.00,WeatherDisplay:10.37,2013-04-27 03:54:00,
2013-04-27 13:59:00,72.1,53.5,30.05,NNE,23,2.0,6.0,52,0.00,CLR,,0.00,WeatherDisplay:10.37,2013-04-27 03:59:00,
2013-04-27 14:04:00,72.5,53.3,30.05,NE,37,0.0,4.0,51,0.00,CLR,,0.00,WeatherDisplay:10.37,2013-04-27 04:04:00,
2013-04-27 14:09:00,72.3,53.2,30.05,NE,43,2.0,5.0,51,0.00,CLR,,0.00,WeatherDisplay:10.37,2013-04-27 04:09:00,
2013-04-27 14:14:00,72.2,53.1,30.06,NNE,31,2.0,6.0,51,0.00,CLR,,0.00,WeatherDisplay:10.37,2013-04-27 04:14:00,
2013-04-27 14:19:00,72.6,52.9,30.06,NNE,24,1.0,7.0,50,0.00,CLR,,0.00,WeatherDisplay:10.37,2013-04-27 04:19:00,
2013-04-27 14:24:00,72.7,53.0,30.06,North,9,2.0,7.0,50,0.00,CLR,,0.00,WeatherDisplay:10.37,2013-04-27 04:24:00,
2013-04-27 14:29:00,72.9,53.2,30.06,North,358,3.0,10.0,50,0.00,CLR,,0.00,WeatherDisplay:10.37,2013-04-27 04:29:00,
2013-04-27 14:39:00,73.0,53.3,30.06,NE,37,2.0,6.0,50,0.00,CLR,,0.00,WeatherDisplay:10.37,2013-04-27 04:39:00,
2013-04-27 14:44:00,72.5,53.4,30.06,NE,45,1.0,3.0,51,0.00,CLR,,0.00,WeatherDisplay:10.37,2013-04-27 04:44:00,
2013-04-27 14:49:00,72.7,53.0,30.06,NNE,18,3.0,5.0,50,0.00,CLR,,0.00,WeatherDisplay:10.37,2013-04-27 04:49:00,
2013-04-27 14:54:00,73.0,53.3,30.06,North,4,3.0,7.0,50,0.00,CLR,,0.00,WeatherDisplay:10.37,2013-04-27 04:54:00,
2013-04-27 14:59:00,73.0,52.7,30.05,North,7,5.0,8.0,49,0.00,CLR,,0.00,WeatherDisplay:10.37,2013-04-27 04:59:00,
2013-04-27 15:04:00,73.2,53.5,30.05,North,9,2.0,8.0,50,0.00,CLR,,0.00,WeatherDisplay:10.37,2013-04-27 05:04:00,
2013-04-27 15:09:00,73.2,53.5,30.05,NNE,25,2.0,6.0,50,0.00,CLR,,0.00,WeatherDisplay:10.37,2013-04-27 05:09:00,
2013-04-27 15:14:00,73.2,53.5,30.05,NE,35,2.0,4.0,50,0.00,CLR,,0.00,WeatherDisplay:10.37,2013-04-27 05:14:00,
2013-04-27 15:19:00,73.2,53.5,30.05,NNE,30,2.0,7.0,50,0.00,CLR,,0.00,WeatherDisplay:10.37,2013-04-27 05:19:00,
2013-04-27 15:24:00,73.2,54.0,30.05,NNE,29,5.0,7.0,51,0.00,CLR,,0.00,WeatherDisplay:10.37,2013-04-27 05:24:00,
2013-04-27 15:29:00,73.3,53.5,30.05,NNE,13,2.0,7.0,50,0.00,CLR,,0.00,WeatherDisplay:10.37,2013-04-27 05:29:00,
2013-04-27 15:34:00,73.2,53.5,30.05,North,358,5.0,6.0,50,0.00,CLR,,0.00,WeatherDisplay:10.37,2013-04-27 05:34:00,
2013-04-27 15:39:00,73.2,54.0,30.05,NE,38,2.0,5.0,51,0.00,CLR,,0.00,WeatherDisplay:10.37,2013-04-27 05:39:00,
2013-04-27 15:44:00,73.1,54.9,30.05,NE,48,2.0,5.0,53,0.00,CLR,,0.00,WeatherDisplay:10.37,2013-04-27 05:44:00,
2013-04-27 15:49:00,73.0,55.4,30.05,NE,42,1.0,4.0,54,0.00,CLR,,0.00,WeatherDisplay:10.37,2013-04-27 05:49:00,
2013-04-27 15:54:00,72.7,55.6,30.05,NE,55,1.0,5.0,55,0.00,CLR,,0.00,WeatherDisplay:10.37,2013-04-27 05:54:00,
2013-04-27 15:59:00,72.5,55.9,30.05,ENE,71,1.0,4.0,56,0.00,CLR,,0.00,WeatherDisplay:10.37,2013-04-27 05:59:00,
2013-04-27 16:04:00,72.3,55.7,30.05,NE,55,1.0,5.0,56,0.00,CLR,,0.00,WeatherDisplay:10.37,2013-04-27 06:04:00,
2013-04-27 16:09:00,72.1,56.1,30.05,ENE,64,2.0,4.0,57,0.00,CLR,,0.00,WeatherDisplay:10.37,2013-04-27 06:09:00,
2013-04-27 16:14:00,71.8,56.2,30.05,East,88,3.0,6.0,58,0.00,CLR,,0.00,WeatherDisplay:10.37,2013-04-27 06:14:00,
2013-04-27 16:19:00,71.4,56.3,30.05,East,80,2.0,5.0,59,0.00,CLR,,0.00,WeatherDisplay:10.37,2013-04-27 06:19:00,
2013-04-27 16:24:00,71.2,56.6,30.05,ENE,67,1.0,8.0,60,0.00,CLR,,0.00,WeatherDisplay:10.37,2013-04-27 06:24:00,
2013-04-27 16:29:00,70.9,56.8,30.04,ENE,67,3.0,8.0,61,0.00,CLR,,0.00,WeatherDisplay:10.37,2013-04-27 06:29:00,
2013-04-27 16:34:00,70.5,56.9,30.04,ENE,67,2.0,7.0,62,0.00,CLR,,0.00,WeatherDisplay:10.37,2013-04-27 06:34:00,
2013-04-27 16:39:00,70.3,57.1,30.05,ENE,70,2.0,4.0,63,0.00,CLR,,0.00,WeatherDisplay:10.37,2013-04-27 06:39:00,
2013-04-27 16:44:00,70.2,57.4,30.04,ENE,61,1.0,3.0,64,0.00,CLR,,0.00,WeatherDisplay:10.37,2013-04-27 06:44:00,
2013-04-27 16:49:00,70.0,57.7,30.04,NE,55,0.0,5.0,65,0.00,CLR,,0.00,WeatherDisplay:10.37,2013-04-27 06:49:00,
2013-04-27 16:54:00,69.8,57.5,30.05,ENE,69,1.0,3.0,65,0.00,CLR,,0.00,WeatherDisplay:10.37,2013-04-27 06:54:00,
2013-04-27 16:59:00,69.6,57.8,30.05,ENE,74,1.0,3.0,66,0.00,CLR,,0.00,WeatherDisplay:10.37,2013-04-27 06:59:00,
2013-04-27 17:04:00,69.5,57.7,30.05,ENE,72,0.0,5.0,66,0.00,CLR,,0.00,WeatherDisplay:10.37,2013-04-27 07:04:00,
2013-04-27 17:09:00,69.4,58.0,30.05,ENE,71,0.0,3.0,67,0.00,CLR,,0.00,WeatherDisplay:10.37,2013-04-27 07:09:00,
2013-04-27 17:14:00,69.1,57.7,30.05,NE,49,0.0,2.0,67,0.00,CLR,,0.00,WeatherDisplay:10.37,2013-04-27 07:14:00,
2013-04-27 17:19:00,68.8,57.8,30.05,NE,37,0.0,2.0,68,0.00,CLR,,0.00,WeatherDisplay:10.37,2013-04-27 07:19:00,
2013-04-27 17:24:00,68.6,57.6,30.05,NNE,31,0.0,2.0,68,0.00,CLR,,0.00,WeatherDisplay:10.37,2013-04-27 07:24:00,
2013-04-27 17:29:00,68.4,57.8,30.05,NNW,347,0.0,1.0,69,0.00,CLR,,0.00,WeatherDisplay:10.37,2013-04-27 07:29:00,
2013-04-27 17:34:00,68.2,57.6,30.06,North,353,0.0,1.0,69,0.00,CLR,,0.00,WeatherDisplay:10.37,2013-04-27 07:34:00,
2013-04-27 17:39:00,67.9,57.3,30.06,North,2,0.0,1.0,69,0.00,CLR,,0.00,WeatherDisplay:10.37,2013-04-27 07:39:00,
2013-04-27 17:44:00,67.8,57.3,30.06,NW,316,0.0,0.0,69,0.00,CLR,,0.00,WeatherDisplay:10.37,2013-04-27 07:44:00,
2013-04-27 17:49:00,67.6,57.5,30.06,NW,316,0.0,1.0,70,0.00,CLR,,0.00,WeatherDisplay:10.37,2013-04-27 07:49:00,
2013-04-27 17:59:00,67.3,57.2,30.06,NW,314,0.0,0.0,70,0.00,CLR,,0.00,WeatherDisplay:10.37,2013-04-27 07:59:00,
2013-04-27 18:04:00,67.1,57.4,30.06,WNW,289,0.0,0.0,71,0.00,CLR,,0.00,WeatherDisplay:10.37,2013-04-27 08:04:00,
2013-04-27 18:09:00,66.9,57.2,30.06,West,272,0.0,1.0,71,0.00,CLR,,0.00,WeatherDisplay:10.37,2013-04-27 08:09:00,
2013-04-27 18:14:00,66.7,57.4,30.06,WSW,256,0.0,1.0,72,0.00,CLR,,0.00,WeatherDisplay:10.37,2013-04-27 08:14:00,
2013-04-27 18:19:00,66.6,57.3,30.06,West,267,0.0,2.0,72,0.00,CLR,,0.00,WeatherDisplay:10.37,2013-04-27 08:19:00,
2013-04-27 18:24:00,66.6,57.3,30.06,NNW,343,1.0,2.0,72,0.00,CLR,,0.00,WeatherDisplay:10.37,2013-04-27 08:24:00,
2013-04-27 18:29:00,66.4,57.1,30.06,North,10,1.0,2.0,72,0.00,CLR,,0.00,WeatherDisplay:10.37,2013-04-27 08:29:00,
2013-04-27 18:34:00,66.2,56.9,30.07,North,356,0.0,2.0,72,0.00,CLR,,0.00,WeatherDisplay:10.37,2013-04-27 08:34:00,
2013-04-27 18:39:00,66.0,57.1,30.07,West,278,0.0,0.0,73,0.00,CLR,,0.00,WeatherDisplay:10.37,2013-04-27 08:39:00,
2013-04-27 18:49:00,65.8,57.3,30.06,SW,225,0.0,0.0,74,0.00,CLR,,0.00,WeatherDisplay:10.37,2013-04-27 08:49:00,
2013-04-27 18:54:00,65.5,57.0,30.06,SW,225,0.0,0.0,74,0.00,CLR,,0.00,WeatherDisplay:10.37,2013-04-27 08:54:00,
2013-04-27 18:59:00,65.3,56.8,30.06,SW,231,0.0,0.0,74,0.00,CLR,,0.00,WeatherDisplay:10.37,2013-04-27 08:59:00,
2013-04-27 19:04:00,65.1,56.6,30.06,WNW,294,0.0,0.0,74,0.00,CLR,,0.00,WeatherDisplay:10.37,2013-04-27 09:04:00,
2013-04-27 19:09:00,64.9,56.8,30.06,NW,318,0.0,0.0,75,0.00,CLR,,0.00,WeatherDisplay:10.37,2013-04-27 09:09:00,
2013-04-27 19:14:00,64.8,56.6,30.06,NNW,332,1.0,2.0,75,0.00,CLR,,0.00,WeatherDisplay:10.37,2013-04-27 09:14:00,
2013-04-27 19:19:00,64.6,56.5,30.06,North,3,1.0,2.0,75,0.00,CLR,,0.00,WeatherDisplay:10.37,2013-04-27 09:19:00,
2013-04-27 19:24:00,64.6,56.5,30.06,North,353,0.0,2.0,75,0.00,CLR,,0.00,WeatherDisplay:10.37,2013-04-27 09:24:00,
2013-04-27 19:29:00,64.4,56.3,30.06,NW,322,0.0,1.0,75,0.00,CLR,,0.00,WeatherDisplay:10.37,2013-04-27 09:29:00,
2013-04-27 19:34:00,64.2,56.1,30.06,SSW,202,0.0,2.0,75,0.00,CLR,,0.00,WeatherDisplay:10.37,2013-04-27 09:34:00,
2013-04-27 19:39:00,64.0,56.0,30.06,SSW,205,0.0,1.0,75,0.00,CLR,,0.00,WeatherDisplay:10.37,2013-04-27 09:39:00,
2013-04-27 19:44:00,63.7,56.0,30.06,SW,217,0.0,1.0,76,0.00,CLR,,0.00,WeatherDisplay:10.37,2013-04-27 09:44:00,
2013-04-27 19:49:00,63.5,55.8,30.06,WSW,250,0.0,0.0,76,0.00,CLR,,0.00,WeatherDisplay:10.37,2013-04-27 09:49:00,
2013-04-27 19:54:00,63.5,55.8,30.06,WSW,258,0.0,2.0,76,0.00,CLR,,0.00,WeatherDisplay:10.37,2013-04-27 09:54:00,
2013-04-27 19:59:00,63.4,55.7,30.06,NNW,333,0.0,0.0,76,0.00,CLR,,0.00,WeatherDisplay:10.37,2013-04-27 09:59:00,
2013-04-27 20:04:00,63.3,55.6,30.06,North,6,0.0,1.0,76,0.00,CLR,,0.00,WeatherDisplay:10.37,2013-04-27 10:04:00,
2013-04-27 20:09:00,63.1,55.4,30.06,North,353,0.0,1.0,76,0.00,CLR,,0.00,WeatherDisplay:10.37,2013-04-27 10:09:00,
2013-04-27 20:14:00,63.1,55.8,30.06,WSW,255,0.0,1.0,77,0.00,CLR,,0.00,WeatherDisplay:10.37,2013-04-27 10:14:00,
2013-04-27 20:19:00,62.9,55.5,30.06,WSW,252,0.0,1.0,77,0.00,CLR,,0.00,WeatherDisplay:10.37,2013-04-27 10:19:00,
2013-04-27 20:24:00,62.8,55.5,30.06,North,359,1.0,2.0,77,0.00,CLR,,0.00,WeatherDisplay:10.37,2013-04-27 10:24:00,
2013-04-27 20:29:00,62.4,55.1,30.06,NNE,13,0.0,2.0,77,0.00,CLR,,0.00,WeatherDisplay:10.37,2013-04-27 10:29:00,
2013-04-27 20:34:00,62.4,55.1,30.06,North,5,1.0,2.0,77,0.00,CLR,,0.00,WeatherDisplay:10.37,2013-04-27 10:34:00,
2013-04-27 20:39:00,62.4,55.1,30.06,NW,324,0.0,0.0,77,0.00,CLR,,0.00,WeatherDisplay:10.37,2013-04-27 10:39:00,
2013-04-27 20:44:00,62.4,55.1,30.06,WNW,288,0.0,0.0,77,0.00,CLR,,0.00,WeatherDisplay:10.37,2013-04-27 10:44:00,
2013-04-27 20:49:00,62.4,55.1,30.06,WNW,289,0.0,0.0,77,0.00,CLR,,0.00,WeatherDisplay:10.37,2013-04-27 10:49:00,
2013-04-27 20:54:00,62.4,55.1,30.06,NNW,336,1.0,2.0,77,0.00,CLR,,0.00,WeatherDisplay:10.37,2013-04-27 10:54:00,
2013-04-27 20:59:00,62.2,54.9,30.06,NNE,16,0.0,2.0,77,0.00,CLR,,0.00,WeatherDisplay:10.37,2013-04-27 10:59:00,
2013-04-27 21:04:00,62.2,54.9,30.06,North,360,0.0,0.0,77,0.00,CLR,,0.00,WeatherDisplay:10.37,2013-04-27 11:04:00,
2013-04-27 21:09:00,62.1,54.8,30.06,WSW,252,0.0,0.0,77,0.00,CLR,,0.00,WeatherDisplay:10.37,2013-04-27 11:09:00,
2013-04-27 21:14:00,61.9,54.6,30.06,SW,234,0.0,0.0,77,0.00,CLR,,0.00,WeatherDisplay:10.37,2013-04-27 11:14:00,
2013-04-27 21:19:00,61.9,54.6,30.06,NW,324,1.0,2.0,77,0.00,CLR,,0.00,WeatherDisplay:10.37,2013-04-27 11:19:00,
2013-04-27 21:24:00,61.9,54.6,30.06,NE,44,0.0,1.0,77,0.00,CLR,,0.00,WeatherDisplay:10.37,2013-04-27 11:24:00,
2013-04-27 21:29:00,61.7,54.4,30.06,ESE,113,0.0,0.0,77,0.00,CLR,,0.00,WeatherDisplay:10.37,2013-04-27 11:29:00,
2013-04-27 21:34:00,61.3,54.1,30.06,SE,135,0.0,0.0,77,0.00,CLR,,0.00,WeatherDisplay:10.37,2013-04-27 11:34:00,
2013-04-27 21:39:00,61.2,53.9,30.06,SE,135,0.0,0.0,77,0.00,CLR,,0.00,WeatherDisplay:10.37,2013-04-27 11:39:00,
2013-04-27 21:44:00,61.0,53.7,30.06,SE,132,0.0,0.0,77,0.00,CLR,,0.00,WeatherDisplay:10.37,2013-04-27 11:44:00,
2013-04-27 21:49:00,61.0,53.7,30.06,East,93,0.0,0.0,77,0.00,CLR,,0.00,WeatherDisplay:10.37,2013-04-27 11:49:00,
2013-04-27 21:54:00,60.7,53.8,30.06,NE,41,0.0,0.0,78,0.00,CLR,,0.00,WeatherDisplay:10.37,2013-04-27 11:54:00,
2013-04-27 21:59:00,60.6,53.7,30.06,NW,321,0.0,0.0,78,0.00,CLR,,0.00,WeatherDisplay:10.37,2013-04-27 11:59:00,
2013-04-27 22:04:00,60.6,53.7,30.06,WNW,293,0.0,0.0,78,0.00,CLR,,0.00,WeatherDisplay:10.37,2013-04-27 12:04:00,
2013-04-27 22:09:00,60.5,53.6,30.06,NW,320,0.0,0.0,78,0.00,CLR,,0.00,WeatherDisplay:10.37,2013-04-27 12:09:00,
2013-04-27 22:14:00,60.6,53.7,30.06,NNE,30,0.0,0.0,78,0.00,CLR,,0.00,WeatherDisplay:10.37,2013-04-27 12:14:00,
2013-04-27 22:19:00,60.4,53.5,30.06,ENE,63,0.0,0.0,78,0.00,CLR,,0.00,WeatherDisplay:10.37,2013-04-27 12:19:00,
2013-04-27 22:24:00,60.4,53.9,30.05,ENE,74,0.0,0.0,79,0.00,CLR,,0.00,WeatherDisplay:10.37,2013-04-27 12:24:00,
2013-04-27 22:29:00,60.4,53.9,30.05,NE,40,0.0,0.0,79,0.00,CLR,,0.00,WeatherDisplay:10.37,2013-04-27 12:29:00,
2013-04-27 22:34:00,60.3,53.4,30.05,NNE,21,0.0,0.0,78,0.00,CLR,,0.00,WeatherDisplay:10.37,2013-04-27 12:34:00,
2013-04-27 22:39:00,60.1,53.5,30.05,NNE,21,0.0,0.0,79,0.00,CLR,,0.00,WeatherDisplay:10.37,2013-04-27 12:39:00,
2013-04-27 22:44:00,60.1,53.5,30.05,NNW,335,0.0,0.0,79,0.00,CLR,,0.00,WeatherDisplay:10.37,2013-04-27 12:44:00,
2013-04-27 22:49:00,60.1,53.5,30.05,WNW,282,0.0,0.0,79,0.00,CLR,,0.00,WeatherDisplay:10.37,2013-04-27 12:49:00,
2013-04-27 22:54:00,60.1,53.5,30.05,WNW,296,0.0,0.0,79,0.00,CLR,,0.00,WeatherDisplay:10.37,2013-04-27 12:54:00,
2013-04-27 22:59:00,60.1,53.5,30.05,North,349,1.0,2.0,79,0.00,CLR,,0.00,WeatherDisplay:10.37,2013-04-27 12:59:00,
2013-04-27 23:04:00,59.9,53.0,30.05,North,349,0.0,1.0,78,0.00,CLR,,0.00,WeatherDisplay:10.37,2013-04-27 13:04:00,
2013-04-27 23:09:00,59.9,53.4,30.05,West,265,1.0,2.0,79,0.00,CLR,,0.00,WeatherDisplay:10.37,2013-04-27 13:09:00,
2013-04-27 23:14:00,59.9,53.4,30.05,NNE,12,1.0,2.0,79,0.00,CLR,,0.00,WeatherDisplay:10.37,2013-04-27 13:14:00,
2013-04-27 23:24:00,59.8,53.3,30.04,NNE,23,0.0,1.0,79,0.00,CLR,,0.00,WeatherDisplay:10.37,2013-04-27 13:24:00,
2013-04-27 23:29:00,59.9,53.3,30.04,NNE,23,0.0,1.0,79,0.00,CLR,,0.00,WeatherDisplay:10.37,2013-04-27 13:29:00,
2013-04-27 23:34:00,59.7,52.8,30.05,WNW,291,0.0,1.0,78,0.00,CLR,,0.00,WeatherDisplay:10.37,2013-04-27 13:34:00,
2013-04-27 23:39:00,59.4,52.8,30.05,WSW,257,0.0,0.0,79,0.00,CLR,,0.00,WeatherDisplay:10.37,2013-04-27 13:39:00,
2013-04-27 23:44:00,59.4,52.9,30.04,NW,304,0.0,1.0,79,0.00,CLR,,0.00,WeatherDisplay:10.37,2013-04-27 13:44:00,
2013-04-27 23:49:00,59.5,53.0,30.05,NNE,21,1.0,2.0,79,0.00,CLR,,0.00,WeatherDisplay:10.37,2013-04-27 13:49:00,
2013-04-27 23:54:00,59.5,53.0,30.04,NNE,18,1.0,2.0,79,0.00,CLR,,0.00,WeatherDisplay:10.37,2013-04-27 13:54:00,
2013-04-27 23:59:00,59.5,53.0,30.04,NNE,17,0.0,2.0,79,0.00,CLR,,0.00,WeatherDisplay:10.37,2013-04-27 13:59:00,